KHAYYAM

导读

KHAYYAM(海亚姆/伽亚谟)卫星是伊朗自主研发的高分辨率遥感卫星,以波斯著名学者莪默·伽亚谟命名,于2022年8月9日在哈萨克斯坦拜科努尔航天发射场,由俄罗斯“联盟2.1B”火箭送入500公里近地轨道。 卫星重约600公斤,由伊朗专家完全控制操作,可每日四次飞越伊朗,其获取的数据将服务于农业、自然资源、灾害管理、国土监测等领域,校准仅耗时6个月,2023年1月已开始传回清晰高精度对地观测图像。

基本信息
目录编号:
53370
目录名称:
KHAYYAM
国际标识:
2022-096A
轨道中心:
EARTH
卫星名称:
KHAYYAM
卫星全名:
--
卫星状态:
在轨 (已飞行1405 天)
发射日期:
2022-08-09 UTC
国别 :
伊朗 (IR)
星等 :
--
轨道信息
数据来源 国际轨道数据
星历时间: 2026-06-15T01:38:53+0800
4小时前
查看轨道信息
半长轴: 6866.684km
偏心率: 0.0002528
轨道倾角: 97.345°
近地点辐角 78.812°
升交点赤经 70.004°
平近点角 281.341°
近地点: 486.811km
远地点: 490.283km
周期: 94.380分钟
每日圈数: 15.25746
详细信息
使用方式:
暂无
2D轨道图
3D轨道图
轨道高度分析图
轨道倾角分析图
轨道综合分析图
查看轨道综合分析图